Date,TemperatureHighF,TemperatureAvgF,TemperatureLowF,DewpointHighF,DewpointAvgF,DewpointLowF,HumidityHigh,HumidityAvg,HumidityLow,PressureMaxIn,PressureMinIn,WindSpeedMaxMPH,WindSpeedAvgMPH,GustSpeedMaxMPH,PrecipitationSumIn
2013-7-1,85,79,74,76,72,68,92,81,67,29.99,29.64,14,4,14,0.25
2013-7-2,83,78,75,76,74,72,90,86,75,30.19,29.99,16,5,16,0.08
2013-7-3,88,79,32,78,74,72,96,84,67,30.26,30.16,15,4,15,0.17
2013-7-4,91,83,76,75,73,66,93,74,50,30.28,30.02,18,5,18,0.00
2013-7-5,91,84,76,75,73,69,89,70,53,30.25,30.13,19,4,19,0.00
2013-7-6,96,85,77,76,73,68,89,69,47,30.22,30.07,16,3,17,0.00
2013-7-7,94,84,75,75,72,65,84,66,47,30.13,29.98,22,4,23,0.04
2013-7-8,90,80,73,74,70,63,92,73,45,30.11,29.84,13,2,18,0.08
2013-7-9,89,81,32,76,73,69,88,76,62,30.11,29.98,10,1,10,0.00
2013-7-10,91,82,76,78,75,72,91,79,63,30.01,29.83,26,3,26,0.17
2013-7-11,89,80,75,74,71,67,90,74,52,29.90,29.81,13,3,13,0.04
2013-7-12,77,70,67,74,69,67,93,87,70,30.02,29.70,13,4,15,2.20
2013-7-13,88,77,69,74,71,69,93,78,62,30.28,30.02,11,1,11,0.00
2013-7-14,92,82,73,78,73,67,96,73,48,30.38,30.10,13,3,13,0.00
2013-7-15,97,84,73,77,72,67,90,68,42,30.35,30.19,9,1,9,0.00
2013-7-16,97,88,80,77,70,63,75,55,37,30.25,30.02,13,4,13,0.00
2013-7-17,99,87,78,76,72,67,84,62,41,30.22,30.10,10,1,10,0.00
2013-7-18,100,88,30,78,75,71,83,63,43,30.13,29.98,13,2,13,0.00
2013-7-19,98,89,80,79,76,71,80,62,48,30.01,29.78,17,4,19,0.00
2013-7-20,95,86,79,76,73,68,80,62,43,29.89,29.67,21,3,21,0.00
2013-7-21,95,84,30,76,71,67,82,63,41,29.93,29.83,11,1,11,0.00
2013-7-22,93,81,30,76,73,69,90,73,54,29.93,29.71,13,3,13,0.04
2013-7-23,89,81,74,75,70,62,92,67,42,29.75,29.60,18,2,18,0.08
2013-7-24,87,79,73,70,64,56,78,59,43,29.90,29.63,13,2,13,0.00
2013-7-25,84,74,65,63,56,50,66,51,39,30.02,29.87,13,5,15,0.00
2013-7-26,86,76,65,64,60,53,80,56,34,30.11,29.98,12,2,12,0.00
2013-7-27,87,75,68,72,68,64,86,74,49,30.05,29.89,22,3,23,0.21
2013-7-28,88,75,69,74,71,68,91,80,59,29.99,29.86,13,1,13,0.25
2013-7-29,87,76,67,71,59,50,83,55,31,30.17,29.96,13,3,13,0.00
2013-7-30,86,76,66,66,59,55,70,54,38,30.26,30.16,12,2,12,0.00
2013-7-31,81,73,68,70,67,63,90,76,58,30.17,30.01,19,2,19,0.12